[[{"header":{"parameterUnit":"m.s-1","parameterCategory":1,"la1":30.2991,"la2":30.254,"lo1":-89.0895,"lo2":-89.0444,"dy":0.0017,"dx":0.0017,"nx":28,"ny":28,"refTime":"2025-12-06T09:00:00:Z","depth":0,"parameterNumber":2,"parameterNumberName":"U-component_of_WINDS"},"data":[0,0,0,0,0,0,0,0,0,0,0,0,0,0,0,0,0,0,0,0,0,0,0,0,0,0,0,0,0,0,0,0,0,0,0,0,0,0,0,0,0,0,0,0,0,0,0,0,0,0,0,0,0,0,0,0,0,0,-0.4282,-0.4282,0,-0.4294,-0.4294,-0.4294,-0.4276,-0.4275,-0.4275,-0.4274,-0.4288,-0.4289,-0.429,0,0,0,0,0,0,0,0,0,0,0,0,0,-0.4246,-0.4246,-0.4282,-0.4282,-0.4282,-0.4294,-0.4294,-0.4294,-0.4276,-0.4275,-0.4275,-0.4274,-0.4287,-0.4289,-0.429,0,0,0,0,0,0,0,0,0,0,0,0,0,-0.426,-0.4247,-0.4282,-0.4275,-0.4274,-0.4294,-0.4294,-0.4294,-0.4276,-0.4275,-0.4274,-0.4274,-0.4287,-0.4288,-0.429,-0.4317,0,0,-0.4294,-0.4295,0,0,0,0,0,0,0,0,-0.4259,-0.4261,-0.4276,-0.4275,-0.4275,-0.4282,-0.4286,-0.4302,-0.4277,-0.4276,-0.4274,-0.4273,-0.4287,-0.4288,-0.4292,-0.4318,-0.4319,-0.4294,-0.4295,-0.4296,-0.4296,0,0,0,0,0,0,0,-0.4258,-0.4261,-0.4287,-0.4276,-0.4275,-0.4271,-0.4272,-0.4289,-0.4286,-0.4276,-0.4274,-0.4276,-0.4286,-0.4291,-0.4293,-0.4319,-0.4294,-0.4295,-0.4296,-0.4297,-0.4367,-0.4368,0,0,0,0,0,0,-0.4258,-0.426,-0.4286,-0.4287,-0.4264,-0.4273,-0.4274,-0.4281,-0.4286,-0.4286,-0.4277,-0.4275,-0.4289,-0.4291,-0.4293,-0.4325,-0.4296,-0.4297,-0.4298,-0.4366,-0.4367,-0.4368,0,0,0,0,0,0,-0.4257,-0.426,-0.4286,-0.4273,-0.4276,-0.4274,-0.4282,-0.4282,-0.4286,-0.4287,-0.4286,-0.4282,-0.4289,-0.4291,-0.4311,-0.4326,-0.4298,-0.4299,-0.4364,-0.4366,-0.4367,-0.439,0,0,0,0,0,0,-0.4256,-0.426,-0.4271,-0.4273,-0.4277,-0.4304,-0.4283,-0.4283,-0.4289,-0.4287,-0.4292,-0.4292,-0.4288,-0.4309,-0.4313,-0.4327,-0.43,-0.4363,-0.4365,-0.4367,-0.4388,-0.4392,-0.4396,0,0,0,0,0,-0.4255,-0.4277,-0.4271,-0.4274,-0.429,-0.4305,-0.4306,-0.4301,-0.429,-0.43,-0.43,-0.4292,-0.4323,-0.4311,-0.4315,-0.433,-0.4362,-0.4365,-0.4367,-0.4387,-0.4392,-0.4396,0,0,0,0,0,0,-0.4277,-0.4277,-0.4271,-0.4295,-0.4299,-0.4301,-0.4315,-0.4307,-0.4316,-0.4314,-0.4307,-0.4308,-0.433,-0.4332,-0.4319,-0.4357,-0.4341,-0.4344,-0.4355,-0.4359,-0.4363,-0.4363,-0.4301,0,0,0,0,0,-0.4284,-0.4296,-0.4296,-0.4317,-0.432,-0.4317,-0.4323,-0.4318,-0.4323,-0.4326,-0.4327,-0.4333,-0.4344,-0.4352,-0.4362,-0.4388,-0.4389,-0.44,-0.4404,-0.4407,-0.441,-0.4424,-0.4429,-0.4375,-0.4375,-0.4375,0,0,-0.43,-0.4302,-0.431,-0.4321,-0.4325,-0.4337,-0.4319,-0.4333,-0.4342,-0.4328,-0.4347,-0.4348,-0.4354,-0.4377,-0.4387,-0.4379,-0.4425,-0.441,-0.4413,-0.4414,-0.4426,-0.4431,-0.4436,-0.4377,-0.4377,-0.4376,0,0,-0.4336,-0.4338,-0.4355,-0.4359,-0.4363,-0.4361,-0.4365,-0.4368,-0.4368,-0.4387,-0.4376,-0.4387,-0.4407,-0.4411,-0.4416,-0.4451,-0.4443,-0.4455,-0.4475,-0.4488,-0.4493,-0.4496,-0.4509,-0.4514,-0.4458,-0.4458,-0.4458,0,-0.4355,-0.4373,-0.4366,-0.438,-0.4385,-0.4372,-0.439,-0.4393,-0.4402,-0.4406,-0.4397,-0.442,-0.4423,-0.4447,-0.4455,-0.446,-0.4464,-0.4455,-0.4492,-0.4496,-0.4499,-0.4511,-0.4516,-0.4459,-0.4459,-0.4459,-0.4459,0,-0.4396,-0.4409,-0.4422,-0.443,-0.4436,-0.4453,-0.4448,-0.4455,-0.445,-0.4448,-0.4467,-0.447,-0.4481,-0.4486,-0.4481,-0.4508,-0.4503,-0.4493,-0.4478,-0.4506,-0.4517,-0.4522,-0.4461,-0.4461,-0.446,-0.446,0,0,-0.4448,-0.4449,-0.4454,-0.4457,-0.4461,-0.4471,-0.4486,-0.4495,-0.4502,-0.4507,-0.452,-0.4536,-0.4527,-0.4532,-0.4527,-0.4539,-0.4566,-0.4527,-0.4527,-0.4535,-0.4597,-0.4605,-0.461,-0.4561,-0.4562,-0.4562,-0.4596,0,-0.4483,-0.4508,-0.4502,-0.4527,-0.4539,-0.4525,-0.4539,-0.4542,-0.4541,-0.4551,-0.455,-0.4561,-0.4548,-0.4551,-0.4561,-0.4561,-0.4579,-0.4558,-0.4573,-0.4574,-0.4572,-0.4616,-0.4624,-0.4657,-0.4601,-0.4601,-0.4602,0,-0.4528,-0.4534,-0.4561,-0.4561,-0.4566,-0.4578,-0.4586,-0.4595,-0.4598,-0.4597,-0.4602,-0.4595,-0.461,-0.4593,-0.4614,-0.46,-0.4605,-0.4606,-0.4607,-0.4608,-0.459,-0.4619,-0.4667,-0.4672,-0.4609,-0.4608,-0.4608,0,-0.4562,-0.4578,-0.4595,-0.4598,-0.46,-0.4608,-0.4609,-0.4612,-0.4618,-0.4624,-0.4628,-0.4636,-0.4641,-0.4648,-0.4643,-0.4631,-0.4664,-0.4647,-0.4664,-0.4664,-0.4672,-0.4672,-0.4722,-0.4675,-0.4675,-0.4675,-0.4674,0,-0.4603,-0.462,-0.4611,-0.4622,-0.464,-0.4632,-0.465,-0.465,-0.4652,-0.4663,-0.4652,-0.4663,-0.4655,-0.4665,-0.4661,-0.4679,-0.4681,-0.468,-0.4679,-0.4681,-0.4682,-0.4685,-0.4683,-0.4676,-0.4676,-0.4675,-0.4675,0,-0.4645,-0.464,-0.4658,-0.4657,-0.4658,-0.4671,-0.4671,-0.4681,-0.4678,-0.4692,-0.4695,-0.4691,-0.4702,-0.4697,-0.4709,-0.4706,-0.4729,-0.4724,-0.4727,-0.4726,-0.4743,-0.4741,-0.4797,-0.4804,-0.4753,-0.4753,-0.4754,0,-0.4672,-0.4684,-0.4684,-0.469,-0.4692,-0.4702,-0.4707,-0.4699,-0.4705,-0.471,-0.4719,-0.4729,-0.4736,-0.4754,-0.4753,-0.4761,-0.4758,-0.4776,-0.4759,-0.4761,-0.4758,-0.4758,-0.4759,-0.478,-0.4781,-0.4781,-0.4782,0,-0.4719,-0.4715,-0.4723,-0.473,-0.4737,-0.4742,-0.4746,-0.4752,-0.4744,-0.4751,-0.4762,-0.4767,-0.4778,-0.4788,-0.4795,-0.4797,-0.4788,-0.4787,-0.4791,-0.4794,-0.4795,-0.4795,-0.4737,-0.4786,-0.4786,-0.4785,-0.4785,-0.4785,-0.4755,-0.4765,-0.4766,-0.4775,-0.4777,-0.4781,-0.479,-0.4788,-0.4796,-0.4805,-0.4799,-0.4811,-0.4814,-0.4823,-0.4825,-0.4835,-0.4827,-0.4834,-0.4835,-0.4837,-0.4839,-0.4793,-0.4836,-0.4836,-0.4836,-0.4836,-0.4836,0,-0.4802,-0.4802,-0.481,-0.4815,-0.4822,-0.4812,-0.4816,-0.4823,-0.4833,-0.4836,-0.4843,-0.4855,-0.4864,-0.4862,-0.4871,-0.4878,-0.4875,-0.4881,-0.4881,-0.4881,-0.4845,-0.4841,-0.4884,-0.4884,-0.4884,-0.4884,-0.4884,-0.4884,-0.4827,-0.4844,-0.484,-0.4857,-0.4857,-0.4868,-0.4871,-0.4875,-0.4877,-0.489,-0.4897,-0.4896,-0.4897,-0.4905,-0.4913,-0.4912,-0.4916,-0.4923,-0.4921,-0.4888,-0.4884,-0.4879,-0.4875,-0.4924,-0.4924,-0.4956,-0.4957,-0.4957]},{"header":{"parameterUnit":"m.s-1","parameterCategory":1,"la1":30.2991,"la2":30.254,"lo1":-89.0895,"lo2":-89.0444,"dy":0.0017,"dx":0.0017,"nx":28,"ny":28,"refTime":"2025-12-06T09:00:00:Z","depth":0,"parameterNumber":3,"parameterNumberName":"V-component_of_WINDS"},"data":[0,0,0,0,0,0,0,0,0,0,0,0,0,0,0,0,0,0,0,0,0,0,0,0,0,0,0,0,0,0,0,0,0,0,0,0,0,0,0,0,0,0,0,0,0,0,0,0,0,0,0,0,0,0,0,0,0,0,-3.8974,-3.8975,0,-3.9032,-3.9032,-3.9033,-3.8983,-3.8981,-3.8979,-3.8977,-3.9033,-3.9036,-3.904,0,0,0,0,0,0,0,0,0,0,0,0,0,-3.8819,-3.8822,-3.8974,-3.8975,-3.8976,-3.9032,-3.9032,-3.9033,-3.8984,-3.8981,-3.8979,-3.8977,-3.9032,-3.9036,-3.904,0,0,0,0,0,0,0,0,0,0,0,0,0,-3.8882,-3.8823,-3.8974,-3.8958,-3.8957,-3.9031,-3.9032,-3.9033,-3.8984,-3.8981,-3.8978,-3.8975,-3.903,-3.9035,-3.904,-3.9133,0,0,-3.9056,-3.9058,0,0,0,0,0,0,0,0,-3.8879,-3.8888,-3.896,-3.8959,-3.8958,-3.8997,-3.8998,-3.9067,-3.8985,-3.8974,-3.8977,-3.8974,-3.9023,-3.9029,-3.9046,-3.9135,-3.9138,-3.9056,-3.9059,-3.9062,-3.9063,0,0,0,0,0,0,0,-3.8874,-3.8885,-3.8997,-3.8961,-3.896,-3.8947,-3.8952,-3.9011,-3.9015,-3.8975,-3.8971,-3.8979,-3.9022,-3.9041,-3.9047,-3.9139,-3.9056,-3.9061,-3.9064,-3.9066,-3.9306,-3.9309,0,0,0,0,0,0,-3.8872,-3.8882,-3.8995,-3.8999,-3.891,-3.8952,-3.8958,-3.8988,-3.9014,-3.9015,-3.8981,-3.8976,-3.9034,-3.9041,-3.9049,-3.9159,-3.9061,-3.9066,-3.9069,-3.9302,-3.9307,-3.931,0,0,0,0,0,0,-3.8869,-3.8883,-3.8993,-3.8939,-3.8952,-3.8958,-3.8992,-3.8991,-3.901,-3.9019,-3.9019,-3.9,-3.9032,-3.9042,-3.9112,-3.916,-3.9069,-3.9073,-3.9299,-3.9304,-3.9308,-3.9379,0,0,0,0,0,0,-3.8865,-3.8882,-3.8918,-3.8941,-3.8955,-3.9057,-3.8994,-3.8994,-3.9019,-3.9013,-3.9037,-3.9038,-3.903,-3.9105,-3.9117,-3.9165,-3.9077,-3.9294,-3.9301,-3.9307,-3.9373,-3.9386,-3.9397,0,0,0,0,0,-3.8859,-3.8935,-3.892,-3.8934,-3.9001,-3.9059,-3.9068,-3.9058,-3.9023,-3.9059,-3.9065,-3.9037,-3.9153,-3.9113,-3.9126,-3.9176,-3.9291,-3.9299,-3.9306,-3.9367,-3.9383,-3.9397,0,0,0,0,0,0,-3.8916,-3.8937,-3.8921,-3.9006,-3.9032,-3.9051,-3.9096,-3.9076,-3.9111,-3.9104,-3.9089,-3.9095,-3.917,-3.918,-3.9135,-3.9267,-3.9216,-3.9227,-3.9258,-3.9273,-3.9285,-3.9281,-3.9081,0,0,0,0,0,-3.8939,-3.8986,-3.9001,-3.9075,-3.9089,-3.909,-3.9116,-3.9106,-3.9131,-3.9141,-3.9153,-3.9177,-3.9219,-3.9246,-3.9285,-3.9374,-3.9378,-3.9414,-3.9427,-3.9437,-3.9446,-3.9494,-3.951,-3.9335,-3.9335,-3.9335,0,0,-3.8986,-3.9003,-3.9034,-3.9087,-3.9106,-3.9154,-3.91,-3.9153,-3.9188,-3.9149,-3.9217,-3.9226,-3.9252,-3.9332,-3.9368,-3.9343,-3.9496,-3.9447,-3.9455,-3.9458,-3.9503,-3.952,-3.9534,-3.934,-3.9339,-3.9338,0,0,-3.9096,-3.9114,-3.9178,-3.9198,-3.9227,-3.9227,-3.9242,-3.9265,-3.927,-3.9338,-3.931,-3.9351,-3.9423,-3.9443,-3.9462,-3.958,-3.9556,-3.9593,-3.9658,-3.9704,-3.9718,-3.973,-3.9772,-3.9787,-3.9602,-3.9602,-3.9602,0,-3.9151,-3.9223,-3.9213,-3.9268,-3.9292,-3.926,-3.9324,-3.9343,-3.9383,-3.94,-3.9371,-3.9461,-3.9477,-3.9561,-3.959,-3.9606,-3.9623,-3.959,-3.9717,-3.9729,-3.974,-3.978,-3.9796,-3.9607,-3.9606,-3.9606,-3.9605,0,-3.9289,-3.9339,-3.9387,-3.9428,-3.9457,-3.9516,-3.9514,-3.9544,-3.9532,-3.9535,-3.9605,-3.9622,-3.9664,-3.9683,-3.9671,-3.9766,-3.9749,-3.9719,-3.9668,-3.9761,-3.9798,-3.9814,-3.9613,-3.9611,-3.961,-3.9609,0,0,-3.9437,-3.9471,-3.9489,-3.9507,-3.9536,-3.9575,-3.9632,-3.9674,-3.97,-3.9729,-3.9776,-3.9838,-3.981,-3.9833,-3.9823,-3.9863,-3.9955,-3.9828,-3.9828,-3.9851,-4.006,-4.0083,-4.01,-3.994,-3.9942,-3.9945,-4.0058,0,-3.9548,-3.965,-3.9642,-3.9737,-3.9783,-3.9753,-3.9803,-3.9826,-3.9831,-3.987,-3.9874,-3.9918,-3.9878,-3.9892,-3.993,-3.9936,-3.9997,-3.9928,-3.9983,-3.9985,-3.9978,-4.012,-4.0144,-4.025,-4.0072,-4.0075,-4.0076,0,-3.9692,-3.9727,-3.9827,-3.985,-3.9869,-3.9914,-3.9952,-3.999,-4.0015,-4.0015,-4.004,-4.0024,-4.008,-4.0028,-4.0105,-4.0058,-4.008,-4.0086,-4.009,-4.0095,-4.0037,-4.0129,-4.0283,-4.0299,-4.0099,-4.0097,-4.0096,0,-3.979,-3.9862,-3.9931,-3.9948,-3.9976,-4.0008,-4.0021,-4.0043,-4.0069,-4.0101,-4.0118,-4.0156,-4.0177,-4.0206,-4.02,-4.0162,-4.0279,-4.0226,-4.028,-4.0281,-4.0306,-4.0305,-4.0467,-4.032,-4.032,-4.032,-4.0319,0,-3.9916,-3.9979,-3.9976,-4.0019,-4.0087,-4.0077,-4.0145,-4.0154,-4.0174,-4.0217,-4.0193,-4.0233,-4.0222,-4.0262,-4.0257,-4.0322,-4.0331,-4.0333,-4.0331,-4.0335,-4.0335,-4.0349,-4.0342,-4.0324,-4.0323,-4.0322,-4.0322,0,-4.0037,-4.0038,-4.0112,-4.0133,-4.0139,-4.0189,-4.0206,-4.0246,-4.0248,-4.0303,-4.0315,-4.0319,-4.0364,-4.0361,-4.0412,-4.0408,-4.0489,-4.0478,-4.0481,-4.0478,-4.0533,-4.0528,-4.071,-4.0733,-4.0571,-4.0573,-4.0574,0,-4.0118,-4.0165,-4.0192,-4.0219,-4.0235,-4.028,-4.0306,-4.0297,-4.0325,-4.0358,-4.0393,-4.0437,-4.0472,-4.0546,-4.0552,-4.0591,-4.0581,-4.0642,-4.0586,-4.0589,-4.0582,-4.0579,-4.0583,-4.0653,-4.0655,-4.0656,-4.0657,0,-4.026,-4.0258,-4.0298,-4.0338,-4.0371,-4.0401,-4.0429,-4.0453,-4.0447,-4.048,-4.0527,-4.0554,-4.0606,-4.065,-4.0687,-4.0698,-4.0677,-4.0675,-4.0689,-4.0694,-4.0694,-4.0695,-4.0511,-4.0671,-4.0669,-4.0668,-4.0668,-4.0667,-4.0363,-4.0404,-4.043,-4.0475,-4.0495,-4.0522,-4.056,-4.0568,-4.0607,-4.065,-4.0642,-4.0695,-4.0718,-4.0765,-4.0781,-4.0821,-4.0799,-4.082,-4.0826,-4.0831,-4.0837,-4.0688,-4.0828,-4.0827,-4.0827,-4.0827,-4.0826,0,-4.0505,-4.052,-4.0561,-4.0602,-4.0637,-4.0615,-4.0644,-4.0675,-4.0722,-4.0746,-4.0781,-4.0834,-4.0876,-4.0886,-4.0926,-4.0956,-4.0948,-4.0967,-4.0965,-4.0968,-4.0855,-4.0838,-4.0974,-4.0974,-4.0974,-4.0974,-4.0974,-4.0974,-4.0583,-4.0651,-4.0652,-4.0729,-4.0743,-4.0796,-4.0815,-4.0839,-4.0858,-4.092,-4.0955,-4.0961,-4.0979,-4.102,-4.1057,-4.1059,-4.1075,-4.1099,-4.1096,-4.0991,-4.0976,-4.0962,-4.0946,-4.1102,-4.1102,-4.1206,-4.1207,-4.1208]}]]